Voltar ao catálogo

ELISA E24

AtivoMilitarSSO
NORAD 38008·PAYLOAD·🇫🇷 France

Lançado Dec 17, 2011 de Guiana Space Centre

Loading…

Próximas Passagens (próximas 24 horas)

TLE

AtualizadoSource: Space-Track

Época: Sep 14, 2026, 13:43 UTC

1 38008U 11076B   26257.57184352  .00000356  00000-0  41914-4 0  9998
2 38008  97.6513 275.4250 0001673  70.2100 289.9299 14.90481983792153

Acompanhe ELISA E24 em tempo real com AllMySat

Download on the App Store